Cincinnati, OH

1:17 AM EDT on March 27, 2017 (GMT -0400)
Cincinnati Municipal-Lunken

Weather History for KLUK - November, 2012

Change the Weather History Date:

Saturday, November 10, 2012

  Actual Average Record
Temperature  
Mean Temperature 56 °F -  
Max Temperature 72 °F 55 °F 75 °F (2006)
Min Temperature 41 °F 37 °F 18 °F (1991)
Degree Days  
Heating Degree Days 8    
Growing Degree Days 6 (Base 50)    
Moisture  
Dew Point 41 °F    
Average Humidity 66    
Maximum Humidity 92    
Minimum Humidity 37    
Precipitation  
Precipitation 0.00 in - - ()
Sea Level Pressure  
Sea Level Pressure 30.19 in    
Wind  
Wind Speed 4 mph (SSW)    
Max Wind Speed 15 mph    
Max Gust Speed 22 mph    
Visibility 10 miles    
Events      
Averages and records for this station are not official NWS values.
T = Trace of Precipitation, MM = Missing Value Source: NWS Daily Summary

Daily Weather History Graph

Daily Weather History Graph

Search for Another Location

Airport or City:

Trip Planner

Search our weather history database for the weather conditions in past years. The results will help you decide how hot, cold, wet, or windy it might be!

Date:

Astronomy

Nov. 10, 2012 Rise Set
Actual Time 7:15 AM EST 5:27 PM EST
Civil Twilight 6:47 AM EST 5:55 PM EST
Nautical Twilight 6:15 AM EST 6:27 PM EST
Astronomical Twilight 5:43 AM EST 6:58 PM EST
Moon 3:21 AM EST (11/10) 3:12 PM EST (11/10)
Length of Visible Light 11h 07m
Length of Day
10h 11m
Waning Crescent, 14% of the Moon is Illuminated
Nov 10
Waning Crescent
Nov 13
New
Nov 20
First Quarter
Nov 28
Full
Dec 6
Last Quarter

Hourly Weather History & Observations

Time (EST) Temp. Windchill Dew Point Humidity Pressure Visibility Wind Dir Wind Speed Gust Speed Precip Events Conditions
12:53 AM 43.0 °F 41.3 °F 39.0 °F 86% 30.16 in 10.0 mi West 3.5 mph - N/A   Clear
1:53 AM 42.1 °F - 39.0 °F 89% 30.17 in 9.0 mi Calm Calm - N/A   Clear
2:53 AM 42.1 °F - 39.0 °F 89% 30.19 in 9.0 mi Calm Calm - N/A   Clear
3:53 AM 42.1 °F - 39.0 °F 89% 30.19 in 9.0 mi Calm Calm - N/A   Clear
4:53 AM 42.1 °F - 39.9 °F 92% 30.21 in 9.0 mi Calm Calm - N/A   Partly Cloudy
5:53 AM 41.0 °F 39.0 °F 37.9 °F 89% 30.22 in 10.0 mi West 3.5 mph - N/A   Clear
6:53 AM 44.1 °F - 37.9 °F 79% 30.22 in 10.0 mi Calm Calm - N/A   Clear
7:53 AM 48.0 °F - 37.9 °F 68% 30.24 in 10.0 mi Calm Calm - N/A   Partly Cloudy
8:53 AM 52.0 °F - 42.1 °F 69% 30.24 in 10.0 mi Calm Calm - N/A   Clear
9:53 AM 59.0 °F - 41.0 °F 51% 30.23 in 10.0 mi South 8.1 mph - N/A   Clear
10:53 AM 63.0 °F - 44.1 °F 50% 30.22 in 10.0 mi South 9.2 mph - N/A   Mostly Cloudy
11:53 AM 66.0 °F - 44.1 °F 45% 30.20 in 10.0 mi South 13.8 mph - N/A   Overcast
12:53 PM 70.0 °F - 46.0 °F 42% 30.17 in 10.0 mi SSW 10.4 mph 20.7 mph N/A   Clear
1:53 PM 71.1 °F - 45.0 °F 39% 30.15 in 10.0 mi SW 13.8 mph 20.7 mph N/A   Clear
2:53 PM 72.0 °F - 45.0 °F 38% 30.13 in 10.0 mi SSW 15.0 mph 21.9 mph N/A   Clear
3:53 PM 72.0 °F - 44.1 °F 37% 30.13 in 10.0 mi South 11.5 mph 20.7 mph N/A   Clear
4:53 PM 69.1 °F - 43.0 °F 39% 30.14 in 10.0 mi SSW 12.7 mph - N/A   Clear
5:53 PM 63.0 °F - 42.1 °F 46% 30.17 in 10.0 mi South 4.6 mph - N/A   Clear
6:53 PM 57.0 °F - 42.1 °F 57% 30.19 in 10.0 mi Calm Calm - N/A   Clear
7:53 PM 50.0 °F - 41.0 °F 71% 30.19 in 10.0 mi West 3.5 mph - N/A   Clear
8:53 PM 50.0 °F - 42.1 °F 74% 30.19 in 10.0 mi Calm Calm - N/A   Clear
9:53 PM 46.0 °F - 41.0 °F 83% 30.20 in 10.0 mi Calm Calm - N/A   Clear
10:53 PM 46.4 °F - 41.0 °F 81% 30.20 in 10.0 mi Calm Calm - N/A   Clear
11:53 PM 44.1 °F - 39.9 °F 85% 30.19 in 10.0 mi Calm Calm - N/A   Clear